• en France
  • Liste des pays
  • À 7 jours
  • Température de l'eau
  • Carte satellitaire
  • Carte météo
  • Widgets météo
  • user-avatar
    Se connecter

    Météo par heure à Kinshasa

    Ce jour, 18 Novembre, Samedi

    Heure Température Précipitation Vent Pression Humidité
    00:00 +21°C° 0 mm 0 m/s 706 mmHg 92%
    01:00 +21°C° 0 mm 0 m/s 706 mmHg 92%
    02:00 +21°C° 0,3 mm 0 m/s 706 mmHg 94%
    03:00 +21°C° 0,3 mm 0 m/s 706 mmHg 95%
    04:00 +20°C° 0,3 mm 0 m/s 706 mmHg 96%
    05:00 +21°C° 0,9 mm 0 m/s 706 mmHg 96%
    06:00 +21°C° 0,9 mm 0 m/s 706 mmHg 95%
    07:00 +21°C° 0,9 mm 0 m/s 707 mmHg 95%
    08:00 +23°C° 0,2 mm 0 m/s 707 mmHg 88%
    09:00 +27°C° 0,2 mm 1 m/s 707 mmHg 81%
    10:00 +29°C° 0,2 mm 1 m/s 708 mmHg 73%
    11:00 +29°C° 0,9 mm 1 m/s 707 mmHg 71%
    12:00 +29°C° 0,9 mm 1 m/s 706 mmHg 69%
    13:00 +30°C° 0,9 mm 1 m/s 706 mmHg 67%
    14:00 +29°C° 1,2 mm 1 m/s 705 mmHg 70%
    15:00 +29°C° 1,2 mm 1 m/s 705 mmHg 72%
    16:00 +29°C° 1,2 mm 1 m/s 705 mmHg 75%
    17:00 +27°C° 0,2 mm 1 m/s 705 mmHg 80%
    18:00 +26°C° 0,2 mm 1 m/s 705 mmHg 85%
    19:00 +24°C° 0,2 mm 1 m/s 705 mmHg 90%
    20:00 +24°C° 0,1 mm 1 m/s 706 mmHg 90%
    21:00 +24°C° 0,1 mm 1 m/s 706 mmHg 91%
    22:00 +23°C° 0,1 mm 1 m/s 706 mmHg 91%
    23:00 +23°C° 0,4 mm 1 m/s 706 mmHg 92%

    Demain, 19 Novembre, Dimanche

    Heure Température Précipitation Vent Pression Humidité
    00:00 +23°C° 0,4 mm 1 m/s 706 mmHg 92%
    01:00 +21°C° 0,4 mm 0 m/s 706 mmHg 93%
    02:00 +21°C° 0,6 mm 0 m/s 706 mmHg 93%
    03:00 +23°C° 0,6 mm 1 m/s 706 mmHg 94%
    04:00 +23°C° 0,6 mm 1 m/s 706 mmHg 95%
    05:00 +23°C° 0,9 mm 1 m/s 706 mmHg 95%
    06:00 +23°C° 0,9 mm 1 m/s 707 mmHg 95%
    07:00 +23°C° 0,9 mm 1 m/s 707 mmHg 95%
    08:00 +23°C° 0,1 mm 1 m/s 708 mmHg 94%
    09:00 +24°C° 0,1 mm 1 m/s 708 mmHg 94%
    10:00 +24°C° 0,1 mm 1 m/s 708 mmHg 93%
    11:00 +26°C° 0,2 mm 1 m/s 708 mmHg 80%
    12:00 +28°C° 0,2 mm 2 m/s 707 mmHg 68%
    13:00 +30°C° 0,2 mm 2 m/s 707 mmHg 55%
    14:00 +30°C° 0 mm 2 m/s 707 mmHg 55%
    15:00 +30°C° 0 mm 1 m/s 706 mmHg 55%
    16:00 +30°C° 0 mm 1 m/s 705 mmHg 55%
    17:00 +28°C° 0 mm 1 m/s 706 mmHg 63%
    18:00 +26°C° 0 mm 1 m/s 706 mmHg 71%
    19:00 +24°C° 0 mm 1 m/s 706 mmHg 79%
    20:00 +24°C° 0 mm 1 m/s 707 mmHg 82%
    21:00 +23°C° 0 mm 1 m/s 707 mmHg 85%
    22:00 +23°C° 0 mm 1 m/s 708 mmHg 88%
    23:00 +23°C° 0 mm 1 m/s 707 mmHg 90%

    Après-demain, 20 Novembre, Lundi

    Heure Température Précipitation Vent Pression Humidité
    00:00 +22°C° 0 mm 1 m/s 707 mmHg 91%
    01:00 +22°C° 0 mm 1 m/s 707 mmHg 93%
    02:00 +22°C° 0 mm 1 m/s 707 mmHg 92%
    03:00 +20°C° 0 mm 0 m/s 707 mmHg 92%
    04:00 +20°C° 0 mm 0 m/s 707 mmHg 91%
    05:00 +21°C° 0 mm 0 m/s 707 mmHg 90%
    06:00 +23°C° 0 mm 1 m/s 708 mmHg 90%
    07:00 +23°C° 0 mm 1 m/s 708 mmHg 89%
    08:00 +25°C° 0 mm 1 m/s 708 mmHg 81%
    09:00 +27°C° 0 mm 1 m/s 709 mmHg 72%
    10:00 +29°C° 0 mm 1 m/s 709 mmHg 64%
    11:00 +31°C° 0 mm 1 m/s 708 mmHg 60%
    12:00 +32°C° 0 mm 1 m/s 708 mmHg 56%
    13:00 +31°C° 0 mm 0 m/s 707 mmHg 52%
    14:00 +32°C° 0,4 mm 1 m/s 706 mmHg 58%
    15:00 +31°C° 0,4 mm 1 m/s 706 mmHg 64%
    16:00 +30°C° 0,4 mm 1 m/s 705 mmHg 70%
    17:00 +28°C° 0,4 mm 1 m/s 705 mmHg 76%
    18:00 +26°C° 0,4 mm 1 m/s 706 mmHg 83%
    19:00 +25°C° 0,4 mm 1 m/s 706 mmHg 89%
    20:00 +24°C° 0,1 mm 1 m/s 706 mmHg 89%
    21:00 +24°C° 0,1 mm 1 m/s 707 mmHg 89%
    22:00 +24°C° 0,1 mm 1 m/s 707 mmHg 89%
    23:00 +23°C° 0,2 mm 1 m/s 707 mmHg 91%

    21 Novembre, Mardi

    Heure Température Précipitation Vent Pression Humidité
    00:00 +23°C° 0,2 mm 1 m/s 707 mmHg 92%
    01:00 +23°C° 0,2 mm 1 m/s 706 mmHg 94%
    02:00 +22°C° 0,2 mm 1 m/s 706 mmHg 95%
    03:00 +20°C° 0,2 mm 0 m/s 706 mmHg 96%
    04:00 +20°C° 0,2 mm 0 m/s 706 mmHg 97%
    05:00 +20°C° 0,1 mm 0 m/s 707 mmHg 96%
    06:00 +23°C° 0,1 mm 1 m/s 707 mmHg 95%
    07:00 +23°C° 0,1 mm 1 m/s 708 mmHg 94%
    08:00 +25°C° 0 mm 1 m/s 708 mmHg 85%
    09:00 +27°C° 0 mm 1 m/s 708 mmHg 76%
    10:00 +30°C° 0 mm 1 m/s 708 mmHg 68%
    11:00 +31°C° 0,4 mm 1 m/s 707 mmHg 63%
    12:00 +32°C° 0,4 mm 1 m/s 707 mmHg 58%
    13:00 +33°C° 0,4 mm 1 m/s 706 mmHg 53%
    14:00 +32°C° 0 mm 1 m/s 705 mmHg 53%
    15:00 +32°C° 0 mm 1 m/s 705 mmHg 53%
    16:00 +32°C° 0 mm 1 m/s 704 mmHg 53%
    17:00 +30°C° 0 mm 1 m/s 704 mmHg 59%
    18:00 +26°C° 0 mm 0 m/s 705 mmHg 65%
    19:00 +24°C° 0 mm 0 m/s 705 mmHg 72%
    20:00 +24°C° 0 mm 0 m/s 705 mmHg 73%
    21:00 +23°C° 0 mm 0 m/s 706 mmHg 75%
    22:00 +23°C° 0 mm 0 m/s 706 mmHg 77%
    23:00 +22°C° 0 mm 0 m/s 706 mmHg 78%

    22 Novembre, Mercredi

    Heure Température Précipitation Vent Pression Humidité
    00:00 +22°C° 0 mm 0 m/s 706 mmHg 80%
    01:00 +22°C° 0 mm 0 m/s 705 mmHg 81%
    02:00 +23°C° 0,2 mm 1 m/s 705 mmHg 85%
    03:00 +23°C° 0,2 mm 1 m/s 705 mmHg 89%
    04:00 +22°C° 0,2 mm 1 m/s 705 mmHg 93%
    05:00 +22°C° 0,4 mm 1 m/s 706 mmHg 93%
    06:00 +23°C° 0,4 mm 2 m/s 707 mmHg 94%
    07:00 +23°C° 0,4 mm 2 m/s 707 mmHg 94%
    08:00 +25°C° 0 mm 2 m/s 708 mmHg 86%
    09:00 +27°C° 0 mm 2 m/s 708 mmHg 78%
    10:00 +29°C° 0 mm 2 m/s 708 mmHg 69%
    11:00 +30°C° 0 mm 2 m/s 707 mmHg 66%
    12:00 +31°C° 0 mm 1 m/s 707 mmHg 62%
    13:00 +32°C° 0 mm 1 m/s 706 mmHg 59%
    14:00 +31°C° 0,2 mm 1 m/s 705 mmHg 59%
    15:00 +31°C° 0,2 mm 1 m/s 705 mmHg 59%
    16:00 +29°C° 0,2 mm 0 m/s 705 mmHg 59%
    17:00 +29°C° 0,1 mm 1 m/s 705 mmHg 67%
    18:00 +27°C° 0,1 mm 1 m/s 705 mmHg 75%
    19:00 +25°C° 0,1 mm 1 m/s 706 mmHg 83%
    20:00 +25°C° 0,1 mm 1 m/s 706 mmHg 86%
    21:00 +24°C° 0,1 mm 1 m/s 706 mmHg 88%
    22:00 +24°C° 0,1 mm 1 m/s 706 mmHg 91%
    23:00 +23°C° 0 mm 1 m/s 706 mmHg 92%

    23 Novembre, Jeudi

    Heure Température Précipitation Vent Pression Humidité
    00:00 +23°C° 0 mm 1 m/s 706 mmHg 94%
    01:00 +23°C° 0 mm 1 m/s 706 mmHg 96%
    02:00 +23°C° 0 mm 1 m/s 706 mmHg 96%
    03:00 +22°C° 0 mm 1 m/s 705 mmHg 97%
    04:00 +22°C° 0 mm 1 m/s 705 mmHg 98%
    05:00 +23°C° 0,2 mm 1 m/s 706 mmHg 96%
    06:00 +23°C° 0,2 mm 1 m/s 707 mmHg 95%
    07:00 +23°C° 0,2 mm 1 m/s 707 mmHg 93%
    08:00 +25°C° 0 mm 1 m/s 708 mmHg 84%
    09:00 +27°C° 0 mm 2 m/s 708 mmHg 76%
    10:00 +29°C° 0 mm 2 m/s 708 mmHg 67%
    11:00 +30°C° 0,1 mm 2 m/s 707 mmHg 63%
    12:00 +31°C° 0,1 mm 2 m/s 707 mmHg 60%
    13:00 +32°C° 0,1 mm 2 m/s 706 mmHg 56%
    14:00 +31°C° 0,8 mm 1 m/s 705 mmHg 60%
    15:00 +31°C° 0,8 mm 1 m/s 705 mmHg 64%
    16:00 +30°C° 0,8 mm 1 m/s 705 mmHg 68%
    17:00 +28°C° 0 mm 1 m/s 705 mmHg 72%
    18:00 +27°C° 0 mm 1 m/s 706 mmHg 77%
    19:00 +23°C° 0 mm 0 m/s 706 mmHg 81%
    20:00 +25°C° 0,1 mm 1 m/s 706 mmHg 82%
    21:00 +25°C° 0,1 mm 1 m/s 706 mmHg 83%
    22:00 +24°C° 0,1 mm 1 m/s 706 mmHg 84%
    23:00 +24°C° 0 mm 1 m/s 706 mmHg 86%
    Voir plus